Location: Hains Lake
(37.8540°N, 99.8578°W)
Time: 09:44:33
(UTC+00:00)

Tiros 1 despin weight - Pass Details

Date: 20 April 2021
Orbit: 593 x 642 km, 48.2° (Epoch: 07 May)

Event Time Altitude Azimuth Distance (km) Brightness Sun altitude
Rises 16:57:13 0° 305° (NW) 2,865 ? 55.5°
Reaches altitude 10° 16:59:35 10° 309° (NW) 1,952 ? 55.8°
Maximum altitude 17:04:00 58° 29° (NNE) 700 ? 56.5°
Drops below altitude 10° 17:08:20 10° 109° (ESE) 1,922 ? 57.1°
Sets 17:10:38 0° 113° (ESE) 2,818 ? 57.4°
